This demonstration page uses our WeatherBlox Daily Observations layout. Learn more.

Left ArrowRight Arrow

41.86663, -103.66717

Hourly Observations for January 28, 2020

Temp ( °F °C ) Dew Point ( °F °C ) Humidity (%) Winds ( mph kmh ) Pressure ( in mb ) Visibility ( mi km ) Precip ( " mm )
12:53 am 00:53 Partly Cloudy 34 1.1 31 -0.6 89 89 WNW 12 19 30.13 1020 10 16 N/A
1:43 am 01:43 Mostly Cloudy 34 1.1 31 -0.6 89 89 WNW 10 17 30.18 1022 10 16 N/A
1:53 am 01:53 Cloudy 33 0.6 31 -0.6 92 92 WNW 10 17 30.14 1021 10 16 N/A
2:24 am 02:24 Cloudy 32 undefined 31 -0.6 96 96 WNW 9 15 30.20 1023 10 16 N/A
2:53 am 02:53 Cloudy 31 -0.6 30 -1.1 96 96 NW 8 13 30.14 1021 10 16 N/A
3:53 am 03:53 Partly Cloudy 30 -1.1 28 -2.2 92 92 WNW 7 11 30.14 1021 10 16 N/A
4:53 am 04:53 Clear 27 -2.8 25 -3.9 92 92 W 6 9 30.16 1021 10 16 N/A
5:53 am 05:53 Clear 23 -5 21 -6.1 92 92 NNW 3 6 30.17 1022 10 16 N/A
6:53 am 06:53 Clear 21 -6.1 20 -6.7 96 96 WNW 6 9 30.19 1022 10 16 N/A
7:53 am 07:53 Sunny 23 -5 22 -5.6 96 96 NW 5 7 30.19 1022 10 16 N/A
8:53 am 08:53 Sunny 29 -1.7 25 -3.9 85 85 WNW 9 15 30.17 1022 10 16 N/A
9:53 am 09:53 Sunny 35 1.7 24 -4.4 64 64 WNW 14 22 30.16 1021 10 16 N/A
10:53 am 10:53 Sunny 39 3.9 24 -4.4 55 55 WNW 14 22 30.14 1021 10 16 N/A
11:53 am 11:53 Sunny 42 5.6 24 -4.4 49 49 WNW 14 22 30.10 1019 10 16 N/A
12:45 pm 12:45 Mostly Sunny 45 7.2 24 -4.4 44 44 WNW 12 19 30.04 1017 10 16 N/A
12:53 pm 12:53 Sunny 44 6.7 23 -5 43 43 WNW 12 19 30.06 1018 10 16 N/A
1:53 pm 13:53 Sunny 46 7.8 21 -6.1 37 37 NW 10 17 30.02 1017 10 16 N/A
2:53 pm 14:53 Sunny 46 7.8 19 -7.2 34 34 NW 8 13 30.02 1017 10 16 N/A
3:53 pm 15:53 Sunny 46 7.8 18 -7.8 32 32 NNW 5 7 30.03 1017 10 16 N/A
4:53 pm 16:53 Sunny 40 4.4 19 -7.2 43 43 NNE 3 6 30.05 1018 10 16 N/A
5:53 pm 17:53 Clear 29 -1.7 17 -8.3 61 61 NNE 3 6 30.10 1019 10 16 N/A
6:53 pm 18:53 Clear 31 -0.6 18 -7.8 59 59 N N/A 30.11 1020 10 16 N/A
7:53 pm 19:53 Clear 25 -3.9 18 -7.8 75 75 E 3 6 30.13 1020 10 16 N/A
8:53 pm 20:53 Clear 22 -5.6 18 -7.8 85 85 NW 6 9 30.11 1020 10 16 N/A
9:53 pm 21:53 Clear 21 -6.1 17 -8.3 85 85 ENE 3 6 30.10 1019 10 16 N/A
10:53 pm 22:53 Clear 21 -6.1 17 -8.3 85 85 N N/A 30.10 1019 10 16 N/A
11:53 pm 23:53 Clear 22 -5.6 18 -7.8 85 85 NNE 3 6 30.08 1019 10 16 N/A

Powered by AerisWeather